Regional Weather Roundup
Issued by NWS Sterling, VA

Home | Current Version | Previous Version | Text Only | Print | Product List | Glossary On
Versions: 1 2 3 4 5 6 7 8 9 10 11 12 13 14 15 16 17 18 19 20 21 22 23 24 25 26 27 28 29 30 31 32 33 34 35 36 37 38 39 40 41 42 43 44 45 46 47 48 49 50
000
ASUS41 KLWX 050710
RWRLWX

REGIONAL WEATHER ROUNDUP
NATIONAL WEATHER SERVICE BALTIMORE MD/WASHINGTON DC
300 AM EDT TUE MAY 05 2015

Note: "FAIR" indicates few or no clouds below 12,000 feet
with no significant weather and/or obstructions to visibility.
 TC=TEMPERATURE CELSIUS

 * =Non NWS site. Station does not report precipitation (e.g. rain,
    snow, etc.), thunder, or fog.

DCZ001-MDZ009-015-VAZ040>042-051-053>054-050800-
WASHINGTON METRO

CITY           SKY/WX    TMP DP  RH WIND       PRES   REMARKS
WASHINGTON NAT PTCLDY    69  56  62 S9        30.21R
DULLES         PTCLDY    64  53  67 S8        30.20S
ANDREWS AFB    CLEAR     67  53  61 S13       30.20S
FT BELVOIR     CLEAR     68  55  63 VRB3      30.21R
QUANTICO       CLEAR     69  53  56 SW8       30.22S
COLLEGE PARK*  CLEAR     70  54  56 S5        30.20S
LEESBURG*      CLEAR     63  55  77 SW3       30.21S
MANASSAS*      CLEAR     64  55  72 S3        30.21S
GAITHERSBURG*  CLEAR     66  52  59 SW3       30.24S

$$

MDZ006>007-011-014-050800-
BALTIMORE METRO

CITY           SKY/WX    TMP DP  RH WIND       PRES   REMARKS
BWI AIRPORT    CLEAR     70  52  52 SW12      30.18S
MD SCIENCE CTR   N/A     67  53  61 MISG      30.19S
MARTIN STATE   CLEAR     61  59  94 CALM      30.20S
ANNAPOLIS      CLEAR     68  51  54 VRB3      30.19S
FORT MEADE*    CLEAR     63  54  72 SW8       30.21S

$$

MDZ012-015-019>023-050800-
MARYLAND EASTERN SHORE

CITY           SKY/WX    TMP DP  RH WIND       PRES   REMARKS
OCEAN CITY     CLEAR     63  55  75 SW9       30.25S
SALISBURY      CLEAR     65  54  67 SW10      30.24F
BAY BRIDGE AP*   N/A    N/A N/A N/A S7        30.20S
CAMBRIDGE*     CLEAR     66  52  59 S8        30.22F
EASTON*        CLEAR     66  55  68 SW8       30.25S

$$

MDZ017>025-050800-
SOUTHERN MARYLAND

CITY           SKY/WX    TMP DP  RH WIND       PRES   REMARKS
PATUXENT RIVER CLEAR     67  53  61 SW15G23   30.22S
ST INIGOES     CLEAR     67  54  63 S12       30.23S
LEONARDTOWN*   CLEAR     66  52  59 SW8       30.24F

$$

MDZ003>005-050800-
NORTH CENTRAL MARYLAND

CITY           SKY/WX    TMP DP  RH WIND       PRES   REMARKS
FREDERICK*     CLEAR     61  52  72 CALM      30.22R
HAGERSTOWN APT PTCLDY    64  50  60 CALM      30.20R
WESTMINSTER*   PTCLDY    66  54  63 W7        30.20R

$$

MDZ501>502-050800-
WESTERN MARYLAND

CITY           SKY/WX    TMP DP  RH WIND       PRES   REMARKS
OAKLAND*       CLOUDY    59  59 100 CALM      30.29F
CUMBERLAND*    MOCLDY    64  50  59 SE3       30.26S

$$

VAZ025>031-050800-
SHENANDOAH VALLEY

CITY           SKY/WX    TMP DP  RH WIND       PRES   REMARKS
WINCHESTER*    CLEAR     64  46  52 CALM      30.22S
FRONT ROYAL*   FAIR      61  52  72 S3        30.21S
LURAY*         FAIR      59  54  82 CALM      30.23S
NEW MARKET*    FAIR      55  52  88 CALM      30.23S
STAUNTON*      CLEAR     55  50  84 CALM      30.27S
WAYNESBORO*    FAIR      58  50  76 CALM      30.26S

$$

WVZ021-048>050-054>055-050800-
EASTERN WEST VIRGINIA PANHANDLE

CITY           SKY/WX    TMP DP  RH WIND       PRES   REMARKS
MARTINSBURG    CLEAR     61  51  70 SE3       30.20S
PETERSBURG*    CLOUDY    55  49  81 CALM      30.25S

$$

VAZ036>039-050-050800-
CENTRAL FOOTHILLS

CITY           SKY/WX    TMP DP  RH WIND       PRES   REMARKS
CHARLOTTESVILL CLEAR     62  53  72 S7        30.23S
CULPEPER*      NOT AVBL
ORANGE*        CLEAR     63  54  72 CALM      30.25S
GORDONSVILLE*  FAIR      60  54  80 SW3       30.23S
WARRENTON*     FAIR      65  56  72 SW5       30.21S

$$

VAZ055>057-050800-
NORTH AND CENTRAL PIEDMONT

CITY           SKY/WX    TMP DP  RH WIND       PRES   REMARKS
FREDERICKSBRG* CLEAR     69  55  60 S9        30.22S
STAFFORD*      CLEAR     66  50  56 S3        30.26S

$$

NCZ024-NYZ072-PAZ021-071-VAZ022-071-050800-
OTHER REGIONAL OBSERVATIONS

CITY           SKY/WX    TMP DP  RH WIND       PRES   REMARKS
NEW YORK CITY  CLEAR     69  45  41 SW9       30.17F
PHILADELPHIA   PTCLDY    64  49  57 S7        30.18F
PITTSBURGH     MOCLDY    62  59  90 CALM      30.21F
ROANOKE        CLEAR     62  51  67 NW5       30.29S
RICHMOND       CLEAR     64  53  67 S8        30.27S
RALEIGH        PTCLDY    61  54  77 SW3       30.33F

$$

ANZ530>537-050800-
MARINE OBSERVATIONS

STATION/POSITION TIME  TEMP    WIND        PRES
                       AIR SEA DIR/SP/G
                 (UTC) (F)     (DEG/KT/KT) (MB)
THOMAS PT LIGHT  0700   68 58  200/ 16/ 18 1023.1S
BALT KEY BRIDGE  0600   68     210/  2/  3 1022.0F
COVE POINT       0600   69     240/ 18/ 21 1023.9F
LEWISETTA        0600   69 67              1023.8F
SOLOMONS ISLAND  0618      61                N/A
PINEY POINT      0600          240/ 12/ 16   N/A

$$



USA.gov is the U.S. government's official web portal to all federal, state and local government web resources and services.